Renton, WA

7:32 PM PST on February 21, 2018 (GMT -0800)
Renton Municipal

Weather History for KRNT - February, 2014

Change the Weather History Date:

Wednesday, February 12, 2014

  Actual Average Record
Temperature  
Mean Temperature 50 °F -  
Max Temperature 54 °F 48 °F 62 °F (2004)
Min Temperature 45 °F 35 °F 30 °F (2001)
Degree Days  
Heating Degree Days 16    
Moisture  
Dew Point 42 °F    
Average Humidity 79    
Maximum Humidity 100    
Minimum Humidity 53    
Precipitation  
Precipitation 0.21 in - - ()
Sea Level Pressure  
Sea Level Pressure 29.74 in    
Wind  
Wind Speed 10 mph (SSE)    
Max Wind Speed 22 mph    
Max Gust Speed 34 mph    
Visibility 8 miles    
Events Rain    
Averages and records for this station are not official NWS values.
T = Trace of Precipitation, MM = Missing Value Source: NWS Daily Summary

Daily Weather History Graph

Daily Weather History Graph

Search for Another Location

Airport or City:

Trip Planner

Search our weather history database for the weather conditions in past years. The results will help you decide how hot, cold, wet, or windy it might be!

Date:

Astronomy

Feb. 12, 2014 Rise Set
Actual Time 7:18 AM PST 5:27 PM PST
Civil Twilight 6:47 AM PST 5:59 PM PST
Nautical Twilight 6:11 AM PST 6:35 PM PST
Astronomical Twilight 5:35 AM PST 7:11 PM PST
Moon 3:43 PM PST (2/12) 5:42 AM PST (2/12)
Length of Visible Light 11h 12m
Length of Day
10h 08m
Waxing Gibbous, 96% of the Moon is Illuminated
Feb 12
Waxing Gibbous
Feb 14
Full
Feb 22
Last Quarter
Mar 1
New
Mar 8
First Quarter

Hourly Weather History & Observations

Time (PST) Temp. Windchill Dew Point Humidity Pressure Visibility Wind Dir Wind Speed Gust Speed Precip Events Conditions
12:53 AM 45.0 °F 41.8 °F 43.0 °F 93% 29.53 in 10.0 mi SSE 5.8 mph - 0.00 in   Overcast
1:53 AM 45.0 °F 42.6 °F 43.0 °F 93% 29.49 in 10.0 mi ESE 4.6 mph - N/A   Overcast
2:53 AM 51.1 °F - 46.0 °F 83% 29.49 in 10.0 mi SSE 8.1 mph - N/A   Overcast
3:12 AM 54.0 °F - 46.9 °F 77% 29.47 in 10.0 mi South 16.1 mph 26.5 mph N/A   Overcast
3:53 AM 54.0 °F - 46.9 °F 77% 29.52 in 10.0 mi South 13.8 mph 34.5 mph N/A   Overcast
4:53 AM 53.1 °F - 48.0 °F 83% 29.57 in 10.0 mi South 16.1 mph 33.4 mph N/A   Overcast
5:53 AM 52.0 °F - 48.0 °F 86% 29.62 in 10.0 mi South 17.3 mph 27.6 mph N/A   Overcast
6:53 AM 50.0 °F - 45.0 °F 83% 29.66 in 10.0 mi South 16.1 mph 28.8 mph N/A   Overcast
7:53 AM 48.9 °F - 44.1 °F 83% 29.72 in 10.0 mi South 21.9 mph 31.1 mph N/A   Scattered Clouds
8:28 AM 48.9 °F - 43.0 °F 80% 29.73 in 10.0 mi South 16.1 mph 29.9 mph N/A   Mostly Cloudy
8:53 AM 48.9 °F - 42.1 °F 77% 29.78 in 10.0 mi South 18.4 mph 25.3 mph N/A   Overcast
9:41 AM 50.0 °F - 39.9 °F 68% 29.80 in 10.0 mi South 12.7 mph 23.0 mph N/A   Mostly Cloudy
9:53 AM 50.0 °F - 39.0 °F 66% 29.83 in 10.0 mi South 16.1 mph 27.6 mph N/A   Partly Cloudy
10:53 AM 51.1 °F - 36.0 °F 56% 29.89 in 10.0 mi South 13.8 mph 24.2 mph N/A   Partly Cloudy
11:53 AM 52.0 °F - 35.1 °F 53% 29.91 in 10.0 mi South 13.8 mph 28.8 mph N/A   Clear
12:53 PM 53.1 °F - 37.9 °F 57% 29.92 in 10.0 mi South 10.4 mph 19.6 mph N/A   Partly Cloudy
1:53 PM 53.1 °F - 37.0 °F 55% 29.89 in 10.0 mi SSW 12.7 mph 18.4 mph N/A   Clear
2:53 PM 53.1 °F - 37.9 °F 57% 29.88 in 10.0 mi SSW 8.1 mph - N/A   Partly Cloudy
3:53 PM 53.1 °F - 39.0 °F 59% 29.86 in 10.0 mi South 6.9 mph - N/A   Mostly Cloudy
4:53 PM 53.1 °F - 39.0 °F 59% 29.85 in 10.0 mi South 9.2 mph - N/A   Overcast
5:53 PM 51.1 °F - 39.0 °F 63% 29.84 in 10.0 mi South 6.9 mph - N/A   Mostly Cloudy
6:53 PM 51.1 °F - 37.9 °F 61% 29.83 in 10.0 mi Calm Calm - N/A   Overcast
7:53 PM 50.0 °F - 36.0 °F 59% 29.82 in 10.0 mi South 4.6 mph - N/A   Overcast
8:53 PM 48.9 °F - 37.9 °F 66% 29.78 in 10.0 mi ESE 4.6 mph - 0.00 in Rain Light Rain
9:29 PM 46.9 °F - 41.0 °F 80% 29.76 in 8.0 mi SE 4.6 mph - 0.00 in Rain Light Rain
9:53 PM 46.0 °F 43.1 °F 42.1 °F 86% 29.77 in 4.0 mi SSE 5.8 mph - 0.06 in Rain Light Rain
10:07 PM 45.0 °F 41.8 °F 43.0 °F 93% 29.74 in 4.0 mi SE 5.8 mph - 0.03 in Rain Rain
10:16 PM 45.0 °F 42.6 °F 44.1 °F 97% 29.74 in 4.0 mi SE 4.6 mph - 0.05 in Rain Rain
10:44 PM 45.0 °F 40.6 °F 44.1 °F 97% 29.72 in 6.0 mi ESE 8.1 mph - 0.09 in Rain Light Rain
10:53 PM 45.0 °F 41.2 °F 44.1 °F 97% 29.74 in 8.0 mi SSE 6.9 mph - 0.09 in Rain Light Rain
11:12 PM 46.0 °F 43.1 °F 44.1 °F 93% 29.73 in 5.0 mi SE 5.8 mph - 0.01 in Rain Light Rain
11:29 PM 46.9 °F - 45.0 °F 93% 29.74 in 2.5 mi SE 6.9 mph - 0.03 in Rain Light Rain
11:37 PM 46.9 °F - 46.0 °F 97% 29.73 in 3.0 mi SE 5.8 mph - 0.04 in Rain Light Rain
11:41 PM 46.9 °F - 46.0 °F 97% 29.73 in 2.0 mi SE 5.8 mph - 0.05 in Rain Rain
11:46 PM 46.9 °F - 46.0 °F 97% 29.74 in 2.0 mi Variable 5.8 mph - 0.06 in Rain Light Rain
11:50 PM 46.4 °F 42.9 °F 46.4 °F 100% 29.74 in 3.0 mi SE 6.9 mph - 0.06 in Rain Light Rain
11:53 PM 46.9 °F - 46.0 °F 97% 29.76 in 4.0 mi Variable 4.6 mph - 0.06 in Rain Light Rain